| time (UTC) | temp C | wind direction | speed KPH | gust KPH | rain 1hr cm | rain 24hr cm | rain mn cm | humidity % | barometer mb |
| 20260506041928 | 7 | 200 | 22.5 | 0.0 | 0.00 | 0.00 | 0.00 | 99 | |
| 20260506031729 | 7 | 200 | 19.3 | 0.0 | 0.00 | 0.00 | 0.00 | 99 | |
| 20260506021729 | 7 | 190 | 19.3 | 0.0 | 0.00 | 0.00 | 0.00 | 99 | |
| 20260506011829 | 7 | 190 | 20.9 | 0.0 | 0.00 | 0.00 | 0.00 | 93 | |
| 20260506001728 | 7 | 260 | 12.9 | 0.0 | 0.00 | 0.00 | 0.00 | 99 | |
| 20260505231728 | 8 | 290 | 12.9 | 0.0 | 0.00 | 0.00 | 0.00 | 93 | |
| 20260505221727 | 8 | 220 | 22.5 | 0.0 | 0.00 | 0.00 | 0.00 | 93 | |
| 20260505211745 | 8 | 220 | 25.7 | 61.2 | 0.00 | 0.00 | 0.00 | 93 | |
| 20260505201744 | 11 | 10 | 19.3 | 0.0 | 0.00 | 0.00 | 0.00 | 99 | |
| 20260505191745 | 11 | 10 | 20.9 | 0.0 | 0.00 | 0.00 | 0.00 | 99 | |
| 20260505181730 | 12 | 360 | 20.9 | 0.0 | 0.00 | 0.00 | 0.00 | 93 | |
| 20260505171729 | 12 | 350 | 19.3 | 29.0 | 0.00 | 0.00 | 0.00 | 93 | |
| 20260505161828 | 12 | 350 | 19.3 | 0.0 | 0.00 | 0.00 | 0.00 | 93 | |
| 20260505151727 | 13 | 350 | 20.9 | 0.0 | 0.00 | 0.00 | 0.00 | 82 | |
| 20260505121728 | 16 | 10 | 20.9 | 0.0 | 0.00 | 0.00 | 0.00 | 67 | |
| 20260505111729 | 16 | 350 | 16.1 | 0.0 | 0.00 | 0.00 | 0.00 | 67 | |
| 20260505101729 | 15 | 350 | 16.1 | 0.0 | 0.00 | 0.00 | 0.00 | 72 | |
| 20260505091728 | 15 | 350 | 11.3 | 0.0 | 0.00 | 0.00 | 0.00 | 72 | |
| 20260505081729 | 13 | 360 | 14.5 | 0.0 | 0.00 | 0.00 | 0.00 | 71 | |
| 20260505071728 | 12 | 320 | 9.7 | 0.0 | 0.00 | 0.00 | 0.00 | 82 | |
| 20260505061729 | 12 | 340 | 9.7 | 0.0 | 0.00 | 0.00 | 0.00 | 81 |